Flag for Australia Weather past 2 weeks in Darwin, Northern Territory, Australia

Now
90 °F

Sunny.


Feels Like: 90 °F
Forecast: 73 / 90 °F
Wind: 16 mph from Northwest

Location: Darwin Airport

Current Time: Sep 23, 2014 at 2:42:39 PM

Latest Report: Sep 23, 2014 at 2:00 PM


Visibility: 10 mi

Pressure: 29.89 "Hg

Humidity: 41%

Dew point: 63 °F

Location of DarwinLocation

Historic Weather in Darwin — Graph

°F

Darwin temperature yesterday

Maximum temperature yesterday: 88 °F (at 12:30 PM)
Minimum temperature yesterday: 72 °F (at 6:30 AM)
Average temperature yesterday: 81 °F

Past Weeks' High & Low Weather Summary

 TemperatureHumidityPressure
High97 °F (Sep 19, 1:00 PM)100% (Sep 10, 4:30 AM)30.04 "Hg (Sep 10, 4:30 AM)
Low68 °F (Sep 10, 4:30 AM)9% (Sep 19, 1:30 PM)29.80 "Hg (Sep 14, 2:30 PM)
Average81 °F65%29.92 "Hg
* Reported Sep 8 1:30 PM — Sep 23 1:30 PM, Darwin, Weather by CustomWeather, © 2014

Note: Actual official high and low records may vary slightly from our data, if they occured in-between our weather recording intervals... More about our weather records

Advertising

Darwin weather history for previous 24 hours

 ConditionsComfort  
Time TempWeatherWind HumidityBarometerVisibility
1:30 PM
Sep 23
88 °FSunny.16 mph46%29.89 "Hg10 mi
1:00 PM88 °FPassing clouds.13 mph46%29.92 "HgN/A
12:30 PM88 °FPassing clouds.12 mph43%29.92 "HgN/A
12:00 PM88 °FPassing clouds.10 mph49%29.95 "HgN/A
11:30 AM84 °FPassing clouds.10 mph58%29.95 "HgN/A
11:00 AM86 °FPassing clouds.8 mph59%29.95 "HgN/A
10:30 AM84 °FScattered clouds.9 mph66%29.98 "HgN/A
10:00 AM84 °FScattered clouds.10 mph66%29.98 "HgN/A
9:30 AM82 °FPassing clouds.8 mph70%29.98 "HgN/A
9:00 AM82 °FScattered clouds.10 mph70%29.98 "HgN/A
8:30 AM81 °FPassing clouds.12 mph74%29.95 "HgN/A
8:00 AM79 °FPassing clouds.9 mph84%29.95 "HgN/A
7:30 AM75 °FPartly sunny.7 mph89%29.95 "HgN/A
7:00 AM73 °FPassing clouds.3 mph94%29.92 "HgN/A
6:30 AM73 °FPassing clouds.6 mph89%29.92 "HgN/A
6:00 AM73 °FPassing clouds.5 mph94%29.92 "HgN/A
5:30 AM73 °FPassing clouds.5 mph89%29.89 "HgN/A
5:00 AM73 °FPassing clouds.6 mph89%29.89 "HgN/A
4:30 AM75 °FPassing clouds.6 mph89%29.89 "HgN/A
4:00 AM77 °FPassing clouds.7 mph83%29.89 "HgN/A
3:30 AM77 °FPassing clouds.7 mph83%29.89 "HgN/A
2:30 AM79 °FPassing clouds.7 mph84%29.89 "HgN/A
2:00 AM79 °FPassing clouds.8 mph84%29.89 "HgN/A
1:30 AM79 °FPassing clouds.8 mph84%29.89 "HgN/A
1:00 AM79 °FPassing clouds.8 mph84%29.89 "HgN/A
12:30 AM79 °FPassing clouds.8 mph79%29.92 "HgN/A
12:00 AM81 °FPassing clouds.9 mph79%29.92 "HgN/A
11:30 PM
Sep 22
81 °FClear.12 mph74%29.92 "Hg10 mi
11:00 PM81 °FClear.9 mph74%29.92 "Hg10 mi
10:30 PM81 °FPassing clouds.9 mph74%29.92 "HgN/A
10:00 PM81 °FClear.9 mph74%29.92 "Hg10 mi
9:30 PM81 °FClear.8 mph74%29.92 "Hg10 mi
9:00 PM81 °FClear.8 mph70%29.92 "Hg10 mi
8:30 PM81 °FClear.8 mph70%29.89 "Hg10 mi
8:00 PM82 °FClear.9 mph62%29.89 "Hg10 mi
7:30 PM82 °FClear.9 mph62%29.89 "Hg10 mi
7:00 PM82 °FPassing clouds.9 mph58%29.89 "HgN/A
6:30 PM82 °FSunny.10 mph62%29.89 "HgN/A
6:00 PM82 °FSunny.12 mph62%29.86 "Hg10 mi
5:30 PM84 °FSunny.15 mph48%29.86 "Hg10 mi
5:00 PM86 °FSunny.13 mph55%29.83 "Hg10 mi
4:30 PM84 °FSunny.13 mph58%29.83 "Hg10 mi
4:00 PM86 °FPassing clouds.15 mph55%29.83 "HgN/A
3:30 PM86 °FPassing clouds.14 mph59%29.83 "HgN/A
3:00 PM86 °FPassing clouds.13 mph59%29.86 "HgN/A
2:30 PM88 °FPassing clouds.13 mph52%29.86 "HgN/A
2:00 PM88 °FPassing clouds.13 mph49%29.86 "HgN/A
Weather by CustomWeather, © 2014

See weather overviewHow to use our weather pages